This demonstration page uses our WeatherBlox Daily Observations layout. Learn more.

Left ArrowRight Arrow

Hourly Observations for October 23, 2015

Temp ( °F °C ) Dew Point ( °F °C ) Humidity (%) Winds ( mph kmh ) Pressure ( in mb ) Visibility ( mi km ) Precip ( " mm )
12:53 am 00:53 Clear 64 17.8 41 5 43 43 NNW 3 6 29.96 1015 10 16 0.00 0.00
1:53 am 01:53 Clear 60 15.6 41 5 50 50 NNW 3 6 29.96 1015 10 16 0.00 0.00
2:53 am 02:53 Clear 56 13.3 40 4.4 55 55 NNW 3 6 29.97 1015 10 16 0.00 0.00
3:53 am 03:53 Clear 53 11.7 39 3.9 59 59 Calm 29.97 1015 10 16 0.00 0.00
4:53 am 04:53 Clear 53 11.7 39 3.9 59 59 Calm 29.96 1015 10 16 0.00 0.00
5:53 am 05:53 Clear 51 10.6 39 3.9 64 64 Calm 29.98 1015 10 16 0.00 0.00
6:53 am 06:53 Clear 52 11.1 39 3.9 61 61 Calm 29.98 1015 10 16 0.00 0.00
7:53 am 07:53 Sunny 49 9.4 38 3.3 66 66 Calm 29.99 1016 10 16 0.00 0.00
8:53 am 08:53 Sunny 62 16.7 42 5.6 48 48 Calm 30.00 1016 10 16 0.00 0.00
9:53 am 09:53 Sunny 68 20 40 4.4 36 36 NNW 5 7 30.00 1016 10 16 0.00 0.00
10:53 am 10:53 Sunny 74 23.3 40 4.4 29 29 NW 6 9 30.00 1016 10 16 0.00 0.00
11:53 am 11:53 Sunny 80 26.7 35 1.7 20 20 N 7 11 29.99 1016 10 16 0.00 0.00
12:53 pm 12:53 Sunny 82 27.8 35 1.7 18 18 Calm 29.98 1015 10 16 0.00 0.00
1:53 pm 13:53 Sunny 83 28.3 34 1.1 17 17 E 5 7 29.96 1015 10 16 0.00 0.00
2:53 pm 14:53 Sunny 83 28.3 33 0.6 17 17 SE 3 6 29.95 1014 10 16 0.00 0.00
3:53 pm 15:53 Sunny 82 27.8 36 2.2 19 19 SSW 5 7 29.95 1014 10 16 0.00 0.00
4:53 pm 16:53 Sunny 80 26.7 39 3.9 23 23 S 7 11 29.95 1014 10 16 0.00 0.00
5:53 pm 17:53 Sunny 76 24.4 42 5.6 30 30 S 7 11 29.94 1014 10 16 0.00 0.00
6:53 pm 18:53 Clear 73 22.8 43 6.1 34 34 SSE 5 7 29.96 1014 10 16 0.00 0.00
7:53 pm 19:53 Clear 68 20 43 6.1 40 40 SE 3 6 29.97 1015 10 16 0.00 0.00
8:53 pm 20:53 Clear 65 18.3 44 6.7 47 47 NNW 3 6 29.98 1015 10 16 0.00 0.00
9:53 pm 21:53 Clear 62 16.7 44 6.7 52 52 Calm 29.98 1015 10 16 0.00 0.00
10:53 pm 22:53 Clear 63 17.2 43 6.1 48 48 N 6 9 29.99 1016 10 16 0.00 0.00
11:53 pm 23:53 Clear 58 14.4 43 6.1 58 58 NNW 3 6 30.00 1016 10 16 0.00 0.00

Powered by AerisWeather